| time (UTC) | temp C | wind direction | speed KPH | gust KPH | rain 1hr cm | rain 24hr cm | rain mn cm | humidity % | barometer mb |
| 20260510214304 | 19 | 344 | 0.0 | 1.6 | 0.00 | 0.00 | 0.00 | 33 | 1020.0 |
| 20260510213801 | 19 | 354 | 1.6 | 1.6 | 0.00 | 0.00 | 0.00 | 34 | 1020.1 |
| 20260510213258 | 20 | 8 | 1.6 | 1.6 | 0.00 | 0.00 | 0.00 | 35 | 1019.8 |
| 20260510212754 | 19 | 44 | 1.6 | 3.2 | 0.00 | 0.00 | 0.00 | 34 | 1019.8 |
| 20260510212252 | 20 | 356 | 4.8 | 8.0 | 0.00 | 0.00 | 0.00 | 31 | 1020.1 |
| 20260510211748 | 19 | 20 | 3.2 | 4.8 | 0.00 | 0.00 | 0.00 | 33 | 1020.0 |
| 20260510211243 | 19 | 48 | 1.6 | 3.2 | 0.00 | 0.00 | 0.00 | 31 | 1019.9 |
| 20260510210740 | 19 | 5 | 1.6 | 1.6 | 0.00 | 0.00 | 0.00 | 31 | 1019.7 |
| 20260510210234 | 19 | 345 | 4.8 | 4.8 | 0.00 | 0.00 | 0.00 | 34 | 1020.0 |
| 20260510205729 | 19 | 213 | 1.6 | 3.2 | 0.00 | 0.00 | 0.00 | 34 | 1020.1 |
| 20260510205224 | 20 | 349 | 3.2 | 3.2 | 0.00 | 0.00 | 0.00 | 35 | 1020.1 |
| 20260510204721 | 19 | 329 | 4.8 | 4.8 | 0.00 | 0.00 | 0.00 | 32 | 1020.0 |
| 20260510204218 | 18 | 52 | 3.2 | 3.2 | 0.00 | 0.00 | 0.00 | 34 | 1020.2 |
| 20260510203714 | 18 | 224 | 1.6 | 3.2 | 0.00 | 0.00 | 0.00 | 35 | 1020.1 |
| 20260510203211 | 18 | 341 | 1.6 | 3.2 | 0.00 | 0.00 | 0.00 | 36 | 1020.5 |
| 20260510202706 | 20 | 354 | 1.6 | 3.2 | 0.00 | 0.00 | 0.00 | 35 | 1020.5 |
| 20260510202201 | 19 | 311 | 1.6 | 1.6 | 0.00 | 0.00 | 0.00 | 36 | 1020.4 |
| 20260510201659 | 19 | 342 | 1.6 | 3.2 | 0.00 | 0.00 | 0.00 | 37 | 1020.6 |
| 20260510201155 | 18 | 321 | 8.0 | 9.7 | 0.00 | 0.00 | 0.00 | 34 | 1020.6 |
| 20260510200652 | 18 | 17 | 3.2 | 4.8 | 0.00 | 0.00 | 0.00 | 33 | 1020.2 |
| 20260510200150 | 18 | 21 | 0.0 | 1.6 | 0.00 | 0.00 | 0.00 | 35 | 1020.6 |
| 20260510195647 | 18 | 357 | 3.2 | 3.2 | 0.00 | 0.00 | 0.00 | 34 | 1020.5 |
| 20260510195143 | 18 | 8 | 3.2 | 4.8 | 0.00 | 0.00 | 0.00 | 34 | 1020.5 |
| 20260510194643 | 18 | 8 | 3.2 | 3.2 | 0.00 | 0.00 | 0.00 | 33 | 1020.7 |
| 20260510194139 | 18 | 344 | 3.2 | 4.8 | 0.00 | 0.00 | 0.00 | 34 | 1020.7 |
| 20260510193634 | 18 | 355 | 3.2 | 3.2 | 0.00 | 0.00 | 0.00 | 33 | 1020.9 |
| 20260510193130 | 18 | 357 | 3.2 | 4.8 | 0.00 | 0.00 | 0.00 | 35 | 1021.0 |
| 20260510192625 | 18 | 355 | 3.2 | 4.8 | 0.00 | 0.00 | 0.00 | 33 | 1020.8 |
| 20260510192121 | 18 | 5 | 4.8 | 8.0 | 0.00 | 0.00 | 0.00 | 35 | 1020.9 |
| 20260510191618 | 19 | 325 | 3.2 | 3.2 | 0.00 | 0.00 | 0.00 | 36 | 1020.9 |
| 20260510191114 | 19 | 341 | 3.2 | 3.2 | 0.00 | 0.00 | 0.00 | 34 | 1020.8 |
| 20260510190612 | 18 | 307 | 4.8 | 4.8 | 0.00 | 0.00 | 0.00 | 34 | 1020.8 |
| 20260510190109 | 18 | 358 | 3.2 | 3.2 | 0.00 | 0.00 | 0.00 | 35 | 1020.7 |
| 20260510185605 | 18 | 324 | 1.6 | 1.6 | 0.00 | 0.00 | 0.00 | 33 | 1020.8 |
| 20260510185103 | 19 | 342 | 1.6 | 1.6 | 0.00 | 0.00 | 0.00 | 37 | 1020.5 |
| 20260510184600 | 18 | 7 | 3.2 | 4.8 | 0.00 | 0.00 | 0.00 | 35 | 1020.8 |
| 20260510184056 | 18 | 24 | 3.2 | 3.2 | 0.00 | 0.00 | 0.00 | 35 | 1020.6 |
| 20260510183551 | 18 | 353 | 1.6 | 1.6 | 0.00 | 0.00 | 0.00 | 36 | 1020.7 |
| 20260510183046 | 18 | 14 | 4.8 | 4.8 | 0.00 | 0.00 | 0.00 | 33 | 1020.7 |
| 20260510182544 | 18 | 344 | 1.6 | 3.2 | 0.00 | 0.00 | 0.00 | 35 | 1020.6 |
| 20260510182039 | 18 | 15 | 1.6 | 1.6 | 0.00 | 0.00 | 0.00 | 36 | 1020.7 |
| 20260510181537 | 18 | 3 | 3.2 | 3.2 | 0.00 | 0.00 | 0.00 | 36 | 1020.6 |
| 20260510181032 | 18 | 317 | 3.2 | 3.2 | 0.00 | 0.00 | 0.00 | 34 | 1020.7 |
| 20260510180524 | 17 | 357 | 1.6 | 1.6 | 0.00 | 0.00 | 0.00 | 36 | 1021.0 |
| 20260510180022 | 17 | 356 | 4.8 | 4.8 | 0.00 | 0.00 | 0.00 | 35 | 1021.2 |
| 20260510175516 | 18 | 328 | 8.0 | 9.7 | 0.00 | 0.00 | 0.00 | 34 | 1020.9 |
| 20260510175012 | 18 | 8 | 1.6 | 1.6 | 0.00 | 0.00 | 0.00 | 36 | 1021.0 |
| 20260510174510 | 18 | 337 | 4.8 | 8.0 | 0.00 | 0.00 | 0.00 | 34 | 1021.0 |
| 20260510174007 | 18 | 325 | 4.8 | 4.8 | 0.00 | 0.00 | 0.00 | 35 | 1020.7 |
| 20260510173457 | 18 | 359 | 1.6 | 3.2 | 0.00 | 0.00 | 0.00 | 35 | 1020.8 |
| 20260510172954 | 18 | 4 | 1.6 | 1.6 | 0.00 | 0.00 | 0.00 | 33 | 1020.7 |
| 20260510172450 | 19 | 297 | 4.8 | 4.8 | 0.00 | 0.00 | 0.00 | 33 | 1020.7 |
| 20260510171946 | 19 | 347 | 1.6 | 3.2 | 0.00 | 0.00 | 0.00 | 34 | 1020.8 |
| 20260510171443 | 19 | 332 | 4.8 | 9.7 | 0.00 | 0.00 | 0.00 | 32 | 1020.8 |
| 20260510170940 | 18 | 42 | 1.6 | 3.2 | 0.00 | 0.00 | 0.00 | 34 | 1020.9 |
| 20260510170436 | 18 | 326 | 8.0 | 11.3 | 0.00 | 0.00 | 0.00 | 33 | 1021.0 |
| 20260510165932 | 18 | 20 | 1.6 | 1.6 | 0.00 | 0.00 | 0.00 | 33 | 1020.6 |
| 20260510165428 | 18 | 345 | 1.6 | 3.2 | 0.00 | 0.00 | 0.00 | 34 | 1020.6 |
| 20260510164925 | 18 | 3 | 1.6 | 1.6 | 0.00 | 0.00 | 0.00 | 35 | 1020.6 |
| 20260510164422 | 18 | 3 | 4.8 | 4.8 | 0.00 | 0.00 | 0.00 | 34 | 1020.6 |
| 20260510163917 | 17 | 8 | 0.0 | 1.6 | 0.00 | 0.00 | 0.00 | 35 | 1020.5 |
| 20260510163413 | 17 | 9 | 0.0 | 0.0 | 0.00 | 0.00 | 0.00 | 36 | 1020.4 |
| 20260510162908 | 17 | 354 | 3.2 | 3.2 | 0.00 | 0.00 | 0.00 | 37 | 1020.6 |
| 20260510162405 | 17 | 45 | 3.2 | 4.8 | 0.00 | 0.00 | 0.00 | 35 | 1020.3 |
| 20260510161900 | 17 | 352 | 1.6 | 3.2 | 0.00 | 0.00 | 0.00 | 38 | 1020.6 |
| 20260510161356 | 17 | 329 | 1.6 | 3.2 | 0.00 | 0.00 | 0.00 | 37 | 1020.4 |
| 20260510160853 | 16 | 15 | 0.0 | 1.6 | 0.00 | 0.00 | 0.00 | 38 | 1020.9 |
| 20260510160350 | 16 | 32 | 1.6 | 3.2 | 0.00 | 0.00 | 0.00 | 38 | 1020.7 |
| 20260510155844 | 16 | 351 | 3.2 | 3.2 | 0.00 | 0.00 | 0.00 | 39 | 1020.9 |
| 20260510155341 | 16 | 48 | 6.4 | 8.0 | 0.00 | 0.00 | 0.00 | 37 | 1020.8 |
| 20260510154837 | 16 | 26 | 3.2 | 3.2 | 0.00 | 0.00 | 0.00 | 39 | 1020.8 |
| 20260510154333 | 16 | 2 | 1.6 | 1.6 | 0.00 | 0.00 | 0.00 | 38 | 1020.9 |
| 20260510153828 | 16 | 4 | 1.6 | 3.2 | 0.00 | 0.00 | 0.00 | 38 | 1020.5 |
| 20260510153324 | 16 | 357 | 3.2 | 3.2 | 0.00 | 0.00 | 0.00 | 38 | 1020.8 |
| 20260510152821 | 16 | 10 | 1.6 | 1.6 | 0.00 | 0.00 | 0.00 | 41 | 1020.4 |
| 20260510152318 | 16 | 44 | 4.8 | 4.8 | 0.00 | 0.00 | 0.00 | 38 | 1020.3 |
| 20260510151815 | 16 | 350 | 4.8 | 4.8 | 0.00 | 0.00 | 0.00 | 38 | 1020.4 |
| 20260510151313 | 16 | 42 | 3.2 | 4.8 | 0.00 | 0.00 | 0.00 | 40 | 1020.3 |
| 20260510150808 | 16 | 42 | 4.8 | 4.8 | 0.00 | 0.00 | 0.00 | 38 | 1020.0 |
| 20260510150304 | 15 | 19 | 0.0 | 0.0 | 0.00 | 0.00 | 0.00 | 40 | 1020.1 |
| 20260510145800 | 15 | 34 | 1.6 | 1.6 | 0.00 | 0.00 | 0.00 | 41 | 1020.4 |
| 20260510145257 | 15 | 37 | 1.6 | 1.6 | 0.00 | 0.00 | 0.00 | 41 | 1020.3 |
| 20260510144753 | 15 | 15 | 3.2 | 4.8 | 0.00 | 0.00 | 0.00 | 42 | 1020.4 |
| 20260510144249 | 15 | 323 | 4.8 | 4.8 | 0.00 | 0.00 | 0.00 | 41 | 1020.3 |
| 20260510143744 | 15 | 28 | 1.6 | 3.2 | 0.00 | 0.00 | 0.00 | 43 | 1020.2 |
| 20260510143240 | 14 | 3 | 1.6 | 1.6 | 0.00 | 0.00 | 0.00 | 42 | 1020.4 |
| 20260510142737 | 14 | 348 | 3.2 | 3.2 | 0.00 | 0.00 | 0.00 | 41 | 1020.6 |
| 20260510142234 | 14 | 11 | 1.6 | 1.6 | 0.00 | 0.00 | 0.00 | 44 | 1020.6 |
| 20260510141731 | 14 | 16 | 1.6 | 1.6 | 0.00 | 0.00 | 0.00 | 42 | 1020.6 |
| 20260510141229 | 14 | 2 | 1.6 | 1.6 | 0.00 | 0.00 | 0.00 | 44 | 1020.5 |
| 20260510140725 | 13 | 356 | 1.6 | 1.6 | 0.00 | 0.00 | 0.00 | 44 | 1020.8 |
| 20260510140220 | 14 | 326 | 1.6 | 3.2 | 0.00 | 0.00 | 0.00 | 44 | 1020.0 |
| 20260510135715 | 13 | 22 | 0.0 | 1.6 | 0.00 | 0.00 | 0.00 | 45 | 1020.4 |
| 20260510135211 | 13 | 6 | 0.0 | 0.0 | 0.00 | 0.00 | 0.00 | 44 | 1020.4 |
| 20260510134708 | 13 | 8 | 1.6 | 1.6 | 0.00 | 0.00 | 0.00 | 44 | 1020.2 |
| 20260510134206 | 13 | 348 | 0.0 | 1.6 | 0.00 | 0.00 | 0.00 | 44 | 1020.3 |
| 20260510133701 | 13 | 22 | 1.6 | 1.6 | 0.00 | 0.00 | 0.00 | 45 | 1020.1 |
| 20260510133157 | 13 | 20 | 0.0 | 1.6 | 0.00 | 0.00 | 0.00 | 44 | 1020.0 |
| 20260510132653 | 13 | 359 | 1.6 | 3.2 | 0.00 | 0.00 | 0.00 | 44 | 1020.1 |
| 20260510132150 | 13 | 356 | 1.6 | 1.6 | 0.00 | 0.00 | 0.00 | 43 | 1019.6 |
| 20260510131648 | 13 | 3 | 1.6 | 1.6 | 0.00 | 0.00 | 0.00 | 43 | 1019.9 |
| 20260510131145 | 13 | 352 | 1.6 | 1.6 | 0.00 | 0.00 | 0.00 | 42 | 1019.9 |
| 20260510130641 | 13 | 344 | 4.8 | 4.8 | 0.00 | 0.00 | 0.00 | 42 | 1019.8 |
| 20260510130139 | 13 | 0 | 1.6 | 3.2 | 0.00 | 0.00 | 0.00 | 43 | 1019.6 |
| 20260510125635 | 13 | 18 | 1.6 | 1.6 | 0.00 | 0.00 | 0.00 | 44 | 1019.7 |
| 20260510125131 | 13 | 28 | 1.6 | 3.2 | 0.00 | 0.00 | 0.00 | 43 | 1019.7 |
| 20260510124628 | 13 | 7 | 1.6 | 3.2 | 0.00 | 0.00 | 0.00 | 43 | 1019.6 |
| 20260510124125 | 13 | 358 | 1.6 | 1.6 | 0.00 | 0.00 | 0.00 | 43 | 1019.3 |
| 20260510123620 | 13 | 24 | 0.0 | 1.6 | 0.00 | 0.00 | 0.00 | 44 | 1019.3 |
| 20260510123117 | 13 | 359 | 0.0 | 0.0 | 0.00 | 0.00 | 0.00 | 43 | 1019.1 |
| 20260510122613 | 13 | 357 | 1.6 | 1.6 | 0.00 | 0.00 | 0.00 | 43 | 1018.9 |
| 20260510122108 | 13 | 346 | 1.6 | 1.6 | 0.00 | 0.00 | 0.00 | 43 | 1018.7 |
| 20260510121606 | 13 | 322 | 4.8 | 4.8 | 0.00 | 0.00 | 0.00 | 43 | 1018.6 |
| 20260510121103 | 13 | 349 | 3.2 | 3.2 | 0.00 | 0.00 | 0.00 | 43 | 1018.3 |
| 20260510120601 | 13 | 50 | 1.6 | 4.8 | 0.00 | 0.00 | 0.00 | 43 | 1018.2 |
| 20260510120056 | 13 | 14 | 3.2 | 3.2 | 0.00 | 0.00 | 0.00 | 44 | 1018.2 |
| 20260510115553 | 13 | 11 | 1.6 | 3.2 | 0.00 | 0.00 | 0.00 | 44 | 1018.0 |
| 20260510115051 | 13 | 342 | 1.6 | 1.6 | 0.00 | 0.00 | 0.00 | 44 | 1018.0 |
| 20260510114546 | 13 | 7 | 1.6 | 1.6 | 0.00 | 0.00 | 0.00 | 43 | 1018.0 |
| 20260510114042 | 13 | 14 | 1.6 | 1.6 | 0.00 | 0.00 | 0.00 | 44 | 1017.8 |
| 20260510113537 | 13 | 13 | 3.2 | 3.2 | 0.00 | 0.00 | 0.00 | 43 | 1017.8 |
| 20260510113036 | 13 | 334 | 1.6 | 1.6 | 0.00 | 0.00 | 0.00 | 43 | 1017.4 |
| 20260510112532 | 13 | 17 | 1.6 | 1.6 | 0.00 | 0.00 | 0.00 | 42 | 1017.6 |
| 20260510112028 | 13 | 11 | 1.6 | 1.6 | 0.00 | 0.00 | 0.00 | 42 | 1017.6 |
| 20260510111525 | 13 | 340 | 1.6 | 1.6 | 0.00 | 0.00 | 0.00 | 41 | 1017.4 |
| 20260510111021 | 13 | 36 | 6.4 | 8.0 | 0.00 | 0.00 | 0.00 | 41 | 1017.5 |
| 20260510110517 | 13 | 24 | 6.4 | 9.7 | 0.00 | 0.00 | 0.00 | 42 | 1017.4 |
| 20260510110014 | 13 | 359 | 1.6 | 1.6 | 0.00 | 0.00 | 0.00 | 44 | 1017.4 |
| 20260510105509 | 13 | 27 | 3.2 | 3.2 | 0.00 | 0.00 | 0.00 | 43 | 1017.6 |
| 20260510105004 | 13 | 343 | 3.2 | 3.2 | 0.00 | 0.00 | 0.00 | 45 | 1017.4 |
| 20260510104501 | 14 | 1 | 1.6 | 1.6 | 0.00 | 0.00 | 0.00 | 45 | 1017.0 |
| 20260510103957 | 14 | 11 | 1.6 | 1.6 | 0.00 | 0.00 | 0.00 | 46 | 1017.1 |
| 20260510103455 | 14 | 4 | 1.6 | 3.2 | 0.00 | 0.00 | 0.00 | 46 | 1017.2 |
| 20260510102950 | 14 | 44 | 3.2 | 4.8 | 0.00 | 0.00 | 0.00 | 47 | 1017.0 |
| 20260510102446 | 14 | 58 | 1.6 | 3.2 | 0.00 | 0.00 | 0.00 | 47 | 1016.9 |
| 20260510101943 | 14 | 339 | 4.8 | 4.8 | 0.00 | 0.00 | 0.00 | 45 | 1016.9 |
| 20260510101441 | 15 | 4 | 0.0 | 0.0 | 0.00 | 0.00 | 0.00 | 42 | 1016.7 |
| 20260510100939 | 15 | 16 | 3.2 | 3.2 | 0.00 | 0.00 | 0.00 | 41 | 1016.7 |
| 20260510100435 | 15 | 12 | 4.8 | 11.3 | 0.00 | 0.00 | 0.00 | 41 | 1016.5 |
| 20260510095931 | 15 | 23 | 6.4 | 8.0 | 0.00 | 0.00 | 0.00 | 40 | 1016.2 |
| 20260510095427 | 15 | 11 | 3.2 | 3.2 | 0.00 | 0.00 | 0.00 | 40 | 1016.3 |
| 20260510094926 | 15 | 9 | 1.6 | 1.6 | 0.00 | 0.00 | 0.00 | 41 | 1016.1 |
| 20260510094421 | 15 | 6 | 1.6 | 1.6 | 0.00 | 0.00 | 0.00 | 42 | 1016.2 |
| 20260510093917 | 15 | 8 | 0.0 | 1.6 | 0.00 | 0.00 | 0.00 | 42 | 1016.3 |
| 20260510093413 | 15 | 320 | 3.2 | 3.2 | 0.00 | 0.00 | 0.00 | 43 | 1016.2 |
| 20260510092909 | 15 | 12 | 0.0 | 1.6 | 0.00 | 0.00 | 0.00 | 43 | 1016.1 |
| 20260510092406 | 15 | 23 | 1.6 | 3.2 | 0.00 | 0.00 | 0.00 | 45 | 1016.2 |
| 20260510091901 | 15 | 13 | 0.0 | 1.6 | 0.00 | 0.00 | 0.00 | 46 | 1015.9 |
| 20260510091358 | 15 | 17 | 0.0 | 3.2 | 0.00 | 0.00 | 0.00 | 46 | 1015.7 |
| 20260510090855 | 15 | 19 | 3.2 | 3.2 | 0.00 | 0.00 | 0.00 | 46 | 1016.0 |
| 20260510090352 | 15 | 353 | 3.2 | 4.8 | 0.00 | 0.00 | 0.00 | 45 | 1015.7 |
| 20260510085847 | 15 | 21 | 3.2 | 3.2 | 0.00 | 0.00 | 0.00 | 46 | 1015.4 |
| 20260510085342 | 16 | 28 | 3.2 | 3.2 | 0.00 | 0.00 | 0.00 | 46 | 1015.7 |
| 20260510084838 | 16 | 12 | 3.2 | 3.2 | 0.00 | 0.00 | 0.00 | 47 | 1015.5 |
| 20260510084336 | 16 | 3 | 3.2 | 3.2 | 0.00 | 0.00 | 0.00 | 47 | 1015.6 |
| 20260510083832 | 16 | 8 | 0.0 | 1.6 | 0.00 | 0.00 | 0.00 | 47 | 1015.4 |
| 20260510083329 | 16 | 31 | 1.6 | 1.6 | 0.00 | 0.00 | 0.00 | 49 | 1015.4 |
| 20260510082824 | 16 | 7 | 0.0 | 0.0 | 0.00 | 0.00 | 0.00 | 51 | 1015.3 |
| 20260510082322 | 16 | 20 | 1.6 | 3.2 | 0.00 | 0.00 | 0.00 | 50 | 1015.3 |
| 20260510081820 | 16 | 2 | 1.6 | 1.6 | 0.00 | 0.00 | 0.00 | 49 | 1015.0 |
| 20260510081317 | 16 | 3 | 1.6 | 1.6 | 0.00 | 0.00 | 0.00 | 51 | 1015.0 |
| 20260510080813 | 16 | 355 | 6.4 | 11.3 | 0.00 | 0.00 | 0.00 | 51 | 1014.8 |
| 20260510080308 | 16 | 12 | 1.6 | 3.2 | 0.00 | 0.00 | 0.00 | 53 | 1015.0 |
| 20260510075805 | 17 | 21 | 1.6 | 3.2 | 0.00 | 0.00 | 0.00 | 53 | 1014.6 |
| 20260510075306 | 17 | 48 | 3.2 | 3.2 | 0.00 | 0.00 | 0.00 | 55 | 1014.9 |
| 20260510074759 | 17 | 1 | 1.6 | 1.6 | 0.00 | 0.00 | 0.00 | 55 | 1014.9 |
| 20260510074256 | 17 | 10 | 1.6 | 3.2 | 0.00 | 0.00 | 0.00 | 56 | 1014.8 |
| 20260510073752 | 17 | 326 | 3.2 | 3.2 | 0.00 | 0.00 | 0.00 | 56 | 1014.7 |
| 20260510073248 | 17 | 1 | 1.6 | 1.6 | 0.00 | 0.00 | 0.00 | 55 | 1014.5 |
| 20260510072744 | 17 | 21 | 0.0 | 1.6 | 0.00 | 0.00 | 0.00 | 54 | 1014.5 |
| 20260510072241 | 17 | 8 | 1.6 | 1.6 | 0.00 | 0.00 | 0.00 | 54 | 1014.4 |
| 20260510071737 | 17 | 354 | 1.6 | 1.6 | 0.00 | 0.00 | 0.00 | 54 | 1014.3 |
| 20260510071234 | 17 | 5 | 0.0 | 0.0 | 0.00 | 0.00 | 0.00 | 54 | 1014.1 |
| 20260510070732 | 17 | 3 | 0.0 | 0.0 | 0.00 | 0.00 | 0.00 | 54 | 1014.3 |
| 20260510070229 | 17 | 358 | 0.0 | 1.6 | 0.00 | 0.00 | 0.00 | 54 | 1014.2 |
| 20260510065724 | 17 | 4 | 0.0 | 1.6 | 0.00 | 0.00 | 0.00 | 54 | 1014.3 |
| 20260510065220 | 17 | 10 | 0.0 | 1.6 | 0.00 | 0.00 | 0.00 | 55 | 1014.2 |
| 20260510064717 | 17 | 5 | 1.6 | 1.6 | 0.00 | 0.00 | 0.00 | 57 | 1014.0 |
| 20260510064215 | 17 | 9 | 0.0 | 0.0 | 0.00 | 0.00 | 0.00 | 57 | 1013.9 |
| 20260510063711 | 17 | 6 | 0.0 | 0.0 | 0.00 | 0.00 | 0.00 | 56 | 1013.9 |
| 20260510063207 | 17 | 4 | 0.0 | 1.6 | 0.00 | 0.00 | 0.00 | 56 | 1014.1 |
| 20260510062704 | 17 | 0 | 1.6 | 1.6 | 0.00 | 0.00 | 0.00 | 56 | 1013.9 |
| 20260510062200 | 17 | 0 | 0.0 | 0.0 | 0.00 | 0.00 | 0.00 | 55 | 1013.6 |
| 20260510061655 | 18 | 6 | 0.0 | 0.0 | 0.00 | 0.00 | 0.00 | 54 | 1013.7 |
| 20260510061153 | 18 | 65 | 1.6 | 3.2 | 0.00 | 0.00 | 0.00 | 54 | 1013.6 |
| 20260510060649 | 18 | 3 | 0.0 | 1.6 | 0.00 | 0.00 | 0.00 | 53 | 1013.8 |
| 20260510060146 | 18 | 12 | 1.6 | 1.6 | 0.00 | 0.00 | 0.00 | 52 | 1013.8 |
| 20260510055642 | 18 | 25 | 0.0 | 1.6 | 0.00 | 0.00 | 0.00 | 52 | 1013.5 |
| 20260510055140 | 18 | 9 | 0.0 | 0.0 | 0.00 | 0.00 | 0.00 | 51 | 1013.8 |
| 20260510054635 | 18 | 11 | 0.0 | 0.0 | 0.00 | 0.00 | 0.00 | 51 | 1013.6 |
| 20260510054132 | 18 | 5 | 0.0 | 0.0 | 0.00 | 0.00 | 0.00 | 51 | 1013.8 |
| 20260510053630 | 18 | 321 | 0.0 | 1.6 | 0.00 | 0.00 | 0.00 | 50 | 1013.6 |
| 20260510053127 | 19 | 353 | 1.6 | 3.2 | 0.00 | 0.00 | 0.00 | 50 | 1013.4 |
| 20260510052624 | 19 | 7 | 0.0 | 0.0 | 0.00 | 0.00 | 0.00 | 50 | 1013.4 |
| 20260510052120 | 19 | 284 | 1.6 | 1.6 | 0.00 | 0.00 | 0.00 | 50 | 1013.5 |
| 20260510051615 | 19 | 32 | 1.6 | 1.6 | 0.00 | 0.00 | 0.00 | 48 | 1013.0 |
| 20260510051113 | 19 | 5 | 0.0 | 0.0 | 0.00 | 0.00 | 0.00 | 48 | 1013.1 |
| 20260510050610 | 20 | 31 | 3.2 | 3.2 | 0.00 | 0.00 | 0.00 | 48 | 1012.5 |
| 20260510050107 | 20 | 27 | 1.6 | 1.6 | 0.00 | 0.00 | 0.00 | 48 | 1012.5 |
| 20260510045604 | 20 | 358 | 1.6 | 3.2 | 0.00 | 0.03 | 0.03 | 48 | 1012.5 |
| 20260510045059 | 20 | 7 | 1.6 | 1.6 | 0.00 | 0.03 | 0.03 | 48 | 1012.5 |
| 20260510044556 | 20 | 7 | 4.8 | 9.7 | 0.00 | 0.03 | 0.03 | 48 | 1012.1 |
| 20260510044054 | 20 | 8 | 1.6 | 1.6 | 0.00 | 0.03 | 0.03 | 48 | 1011.8 |
| 20260510043549 | 20 | 24 | 3.2 | 3.2 | 0.00 | 0.03 | 0.03 | 48 | 1011.9 |
| 20260510043045 | 20 | 30 | 3.2 | 3.2 | 0.00 | 0.03 | 0.03 | 48 | 1011.8 |
| 20260510042539 | 20 | 3 | 1.6 | 1.6 | 0.00 | 0.03 | 0.03 | 49 | 1011.8 |
| 20260510042034 | 20 | 359 | 1.6 | 3.2 | 0.00 | 0.03 | 0.03 | 49 | 1011.5 |
| 20260510041531 | 20 | 36 | 4.8 | 4.8 | 0.00 | 0.03 | 0.03 | 49 | 1011.4 |
| 20260510041028 | 20 | 23 | 3.2 | 3.2 | 0.00 | 0.03 | 0.03 | 52 | 1011.5 |
| 20260510040520 | 20 | 8 | 0.0 | 1.6 | 0.00 | 0.03 | 0.03 | 51 | 1011.5 |
| 20260510040015 | 20 | 2 | 0.0 | 1.6 | 0.00 | 0.03 | 0.03 | 51 | 1011.3 |
| 20260510035513 | 20 | 15 | 0.0 | 0.0 | 0.00 | 0.03 | 0.03 | 52 | 1011.3 |
| 20260510035011 | 20 | 40 | 1.6 | 3.2 | 0.00 | 0.03 | 0.03 | 52 | 1011.1 |
| 20260510034510 | 20 | 5 | 0.0 | 0.0 | 0.00 | 0.03 | 0.03 | 53 | 1011.1 |
| 20260510034006 | 20 | 19 | 1.6 | 1.6 | 0.00 | 0.03 | 0.03 | 52 | 1010.8 |
| 20260510033503 | 20 | 0 | 0.0 | 0.0 | 0.00 | 0.03 | 0.03 | 53 | 1011.1 |
| 20260510033000 | 20 | 11 | 0.0 | 0.0 | 0.00 | 0.03 | 0.03 | 53 | 1010.7 |
| 20260510032456 | 20 | 11 | 1.6 | 1.6 | 0.00 | 0.03 | 0.03 | 52 | 1011.1 |
| 20260510031951 | 20 | 23 | 0.0 | 1.6 | 0.00 | 0.03 | 0.03 | 53 | 1011.2 |
| 20260510031447 | 21 | 3 | 0.0 | 1.6 | 0.00 | 0.03 | 0.03 | 53 | 1010.9 |
| 20260510030943 | 21 | 355 | 1.6 | 1.6 | 0.00 | 0.03 | 0.03 | 53 | 1010.9 |
| 20260510030438 | 21 | 16 | 1.6 | 1.6 | 0.00 | 0.03 | 0.03 | 51 | 1010.6 |
| 20260510025936 | 21 | 7 | 0.0 | 0.0 | 0.00 | 0.03 | 0.03 | 51 | 1011.1 |
| 20260510025433 | 21 | 11 | 0.0 | 0.0 | 0.00 | 0.03 | 0.03 | 51 | 1011.2 |
| 20260510024931 | 21 | 322 | 1.6 | 1.6 | 0.00 | 0.03 | 0.03 | 49 | 1011.0 |
| 20260510024427 | 21 | 346 | 1.6 | 1.6 | 0.00 | 0.03 | 0.03 | 49 | 1010.7 |
| 20260510023923 | 21 | 343 | 0.0 | 1.6 | 0.00 | 0.03 | 0.03 | 50 | 1010.6 |
| 20260510023419 | 21 | 316 | 1.6 | 3.2 | 0.00 | 0.03 | 0.03 | 49 | 1010.2 |
| 20260510022917 | 21 | 11 | 0.0 | 1.6 | 0.00 | 0.03 | 0.03 | 50 | 1009.9 |
| 20260510022415 | 21 | 3 | 1.6 | 1.6 | 0.00 | 0.03 | 0.03 | 49 | 1009.9 |
| 20260510021915 | 21 | 5 | 0.0 | 0.0 | 0.00 | 0.03 | 0.03 | 49 | 1009.8 |
| 20260510021413 | 21 | 2 | 0.0 | 1.6 | 0.00 | 0.03 | 0.03 | 48 | 1009.9 |
| 20260510020909 | 21 | 349 | 1.6 | 1.6 | 0.00 | 0.03 | 0.03 | 48 | 1009.6 |
| 20260510020404 | 21 | 6 | 1.6 | 3.2 | 0.00 | 0.03 | 0.03 | 48 | 1009.6 |
| 20260510015900 | 21 | 345 | 3.2 | 4.8 | 0.00 | 0.03 | 0.03 | 48 | 1009.4 |
| 20260510015356 | 21 | 335 | 3.2 | 3.2 | 0.00 | 0.03 | 0.03 | 48 | 1009.4 |
| 20260510014851 | 22 | 1 | 0.0 | 0.0 | 0.00 | 0.03 | 0.03 | 48 | 1009.4 |
| 20260510014349 | 22 | 6 | 0.0 | 0.0 | 0.00 | 0.03 | 0.03 | 48 | 1009.2 |
| 20260510013845 | 22 | 351 | 4.8 | 4.8 | 0.00 | 0.03 | 0.03 | 47 | 1009.1 |
| 20260510013341 | 22 | 11 | 4.8 | 8.0 | 0.00 | 0.03 | 0.03 | 47 | 1009.2 |
| 20260510012836 | 22 | 1 | 4.8 | 4.8 | 0.00 | 0.03 | 0.03 | 47 | 1009.2 |
| 20260510012335 | 22 | 11 | 3.2 | 3.2 | 0.00 | 0.03 | 0.03 | 46 | 1008.9 |
| 20260510011831 | 22 | 339 | 4.8 | 8.0 | 0.00 | 0.03 | 0.03 | 45 | 1008.8 |
| 20260510011326 | 22 | 332 | 4.8 | 4.8 | 0.00 | 0.03 | 0.03 | 46 | 1008.8 |
| 20260510010823 | 22 | 350 | 3.2 | 3.2 | 0.00 | 0.03 | 0.03 | 47 | 1008.9 |
| 20260510010320 | 22 | 11 | 1.6 | 1.6 | 0.00 | 0.03 | 0.03 | 47 | 1008.7 |
| 20260510005817 | 22 | 341 | 4.8 | 4.8 | 0.00 | 0.03 | 0.03 | 46 | 1008.7 |
| 20260510005313 | 23 | 339 | 3.2 | 3.2 | 0.00 | 0.03 | 0.03 | 46 | 1008.5 |
| 20260510004811 | 23 | 303 | 3.2 | 4.8 | 0.00 | 0.03 | 0.03 | 46 | 1008.4 |
| 20260510004308 | 23 | 341 | 4.8 | 4.8 | 0.00 | 0.03 | 0.03 | 45 | 1008.4 |
| 20260510003806 | 23 | 338 | 1.6 | 3.2 | 0.00 | 0.03 | 0.03 | 45 | 1008.3 |
| 20260510003303 | 23 | 336 | 3.2 | 4.8 | 0.00 | 0.03 | 0.03 | 46 | 1008.2 |
| 20260510002801 | 23 | 355 | 3.2 | 3.2 | 0.00 | 0.03 | 0.03 | 45 | 1008.0 |
| 20260510002259 | 23 | 316 | 4.8 | 4.8 | 0.00 | 0.03 | 0.03 | 44 | 1007.9 |
| 20260510001755 | 24 | 316 | 8.0 | 11.3 | 0.00 | 0.03 | 0.03 | 44 | 1007.9 |
| 20260510001253 | 23 | 1 | 3.2 | 3.2 | 0.00 | 0.03 | 0.03 | 44 | 1007.8 |
| 20260510000749 | 23 | 4 | 3.2 | 3.2 | 0.00 | 0.03 | 0.03 | 43 | 1007.5 |
| 20260510000248 | 24 | 27 | 4.8 | 4.8 | 0.00 | 0.03 | 0.03 | 43 | 1007.8 |
| 20260509235744 | 24 | 344 | 1.6 | 1.6 | 0.00 | 0.03 | 0.03 | 43 | 1007.8 |
| 20260509235240 | 24 | 317 | 3.2 | 4.8 | 0.00 | 0.03 | 0.03 | 42 | 1007.6 |
| 20260509234736 | 25 | 2 | 3.2 | 3.2 | 0.00 | 0.03 | 0.03 | 41 | 1007.5 |
| 20260509234233 | 25 | 322 | 6.4 | 9.7 | 0.00 | 0.03 | 0.03 | 40 | 1007.7 |
| 20260509233731 | 25 | 5 | 4.8 | 4.8 | 0.00 | 0.03 | 0.03 | 40 | 1007.4 |
| 20260509233229 | 25 | 8 | 3.2 | 3.2 | 0.00 | 0.03 | 0.03 | 39 | 1007.2 |
| 20260509232724 | 25 | 351 | 9.7 | 14.5 | 0.00 | 0.03 | 0.03 | 38 | 1007.2 |
| 20260509232222 | 25 | 321 | 8.0 | 9.7 | 0.00 | 0.03 | 0.03 | 38 | 1007.4 |
| 20260509231718 | 26 | 330 | 6.4 | 9.7 | 0.00 | 0.03 | 0.03 | 36 | 1007.3 |
| 20260509231215 | 26 | 318 | 4.8 | 4.8 | 0.00 | 0.03 | 0.03 | 35 | 1007.2 |
| 20260509230712 | 26 | 135 | 1.6 | 1.6 | 0.00 | 0.03 | 0.03 | 34 | 1007.1 |
| 20260509230203 | 27 | 292 | 1.6 | 1.6 | 0.00 | 0.03 | 0.03 | 33 | 1006.9 |
| 20260509225659 | 27 | 228 | 1.6 | 3.2 | 0.00 | 0.03 | 0.03 | 33 | 1006.8 |
| 20260509225154 | 27 | 11 | 0.0 | 1.6 | 0.00 | 0.03 | 0.03 | 33 | 1006.8 |
| 20260509224651 | 27 | 54 | 1.6 | 1.6 | 0.00 | 0.03 | 0.03 | 32 | 1006.9 |
| 20260509224148 | 27 | 120 | 1.6 | 3.2 | 0.00 | 0.03 | 0.03 | 31 | 1006.6 |
| 20260509223645 | 27 | 168 | 1.6 | 1.6 | 0.00 | 0.03 | 0.03 | 33 | 1006.5 |
| 20260509223142 | 27 | 355 | 0.0 | 1.6 | 0.00 | 0.03 | 0.03 | 32 | 1006.5 |
| 20260509222639 | 27 | 357 | 1.6 | 1.6 | 0.00 | 0.03 | 0.03 | 32 | 1006.5 |
| 20260509222134 | 27 | 282 | 3.2 | 3.2 | 0.00 | 0.03 | 0.03 | 32 | 1006.4 |
| 20260509221630 | 27 | 342 | 1.6 | 1.6 | 0.00 | 0.03 | 0.03 | 31 | 1006.5 |
| 20260509221126 | 27 | 33 | 0.0 | 1.6 | 0.00 | 0.03 | 0.03 | 30 | 1006.3 |
| 20260509220622 | 27 | 30 | 0.0 | 0.0 | 0.00 | 0.03 | 0.03 | 31 | 1006.4 |
| 20260509220119 | 27 | 254 | 1.6 | 3.2 | 0.00 | 0.03 | 0.03 | 31 | 1006.5 |
| 20260509215615 | 28 | 202 | 1.6 | 1.6 | 0.00 | 0.03 | 0.03 | 31 | 1006.4 |
| 20260509215112 | 28 | 236 | 4.8 | 8.0 | 0.00 | 0.03 | 0.03 | 32 | 1006.3 |
| 20260509214609 | 28 | 338 | 1.6 | 3.2 | 0.00 | 0.03 | 0.03 | 32 | 1006.3 |